This is the latest recevied weather packets stored in our database for station/object W0VI. If no packets are shown the sender has not sent any weather packets the latest 10 day(s).
| Time | Temp. | Humidity | Pressure | Rain* | Wind** | Luminosity | Snow |
|---|---|---|---|---|---|---|---|
| 1777920124 | 15° C | 43% | 1000 hPa | 0 mm | - | 270 W/m² | - |
| 1777919820 | 15.56° C | 44% | 1000 hPa | 0 mm | - | 471 W/m² | - |
| 1777919517 | 15.56° C | 43% | 1000.2 hPa | 0 mm | - | 719 W/m² | - |
| 1777919215 | 15.56° C | 41% | 1000.1 hPa | 0 mm | - | 652 W/m² | - |
| 1777918912 | 15° C | 43% | 999.7 hPa | 0 mm | - | 739 W/m² | - |
| 1777918609 | 15° C | 43% | 999.7 hPa | 0 mm | - | 530 W/m² | - |
| 1777918307 | 15° C | 44% | 999.7 hPa | 0 mm | - | 344 W/m² | - |
| 1777918006 | 15.56° C | 42% | 999.5 hPa | 0 mm | - | 690 W/m² | - |
| 1777917704 | 16.11° C | 40% | 999.6 hPa | 0 mm | - | 598 W/m² | - |
| 1777917401 | 15.56° C | 40% | 999.4 hPa | 0 mm | - | 613 W/m² | - |
| 1777917097 | 15° C | 41% | 999.2 hPa | 0 mm | - | 714 W/m² | - |
| 1777916796 | 15° C | 41% | 999.2 hPa | 0 mm | - | 410 W/m² | - |
| 1777916492 | 15° C | 41% | 998.9 hPa | 0 mm | - | 590 W/m² | - |
| 1777916189 | 15.56° C | 41% | 999.2 hPa | 0 mm | - | 675 W/m² | - |
| 1777915887 | 15.56° C | 41% | 999.2 hPa | 0 mm | - | 701 W/m² | - |
| 1777915582 | 15.56° C | 41% | 999.3 hPa | 0 mm | - | 663 W/m² | - |
| 1777915280 | 15.56° C | 41% | 999.2 hPa | 0 mm | - | 646 W/m² | - |
| 1777914976 | 15.56° C | 41% | 999.1 hPa | 0 mm | - | 672 W/m² | - |
| 1777914674 | 15.56° C | 39% | 999 hPa | 0 mm | - | 691 W/m² | - |
| 1777914369 | 15° C | 42% | 998.9 hPa | 0 mm | - | 692 W/m² | - |
| 1777914067 | 15° C | 42% | 999.1 hPa | 0 mm | - | 516 W/m² | - |
| 1777913763 | 15° C | 45% | 999 hPa | 0 mm | - | 425 W/m² | - |
| 1777913460 | 15.56° C | 45% | 999 hPa | 0 mm | - | 356 W/m² | - |
| 1777913156 | 15.56° C | 46% | 999.1 hPa | 0 mm | - | 848 W/m² | - |
| 1777912853 | 15.56° C | 45% | 999 hPa | 0 mm | - | 891 W/m² | - |
* Rain latest hour (hover to see other rain measurements)
** Current wind speed in m/s (hover to see current wind gust speed)